Location: Alto Pass Reservoir
(37.5801°N, 89.3084°W)
Time: 23:34:53
(UTC+00:00)

Cosmos 2298 Rocket - Pass Details

Date: 10 July 2022
Orbit: 775 x 784 km, 74.0° (Epoch: 18 August)

Event Time Altitude Azimuth Distance (km) Brightness Sun altitude
Rises 07:21:50 0° 351° (N) 3,279 8.2 -27.4°
Reaches altitude 10° 07:24:29 10° 1° (N) 2,347 7.4 -27.2°
Maximum altitude 07:29:14 32° 65° (ENE) 1,318 5.6 -26.8°
Enters shadow 07:32:35 17° 118° (ESE) 1,893 6.0 -26.6°
